Wind_Speed
13 12 12 12 12 12 12 12 12 11 12 12 12 12 12 12 12 12 12 11 10 10 10 11 11 10 10 11 11 12 12 13 13 13 13 13 13 12
14 13 13 13 13 13 14 13 13 13 13 13 13 13 13 13 12 12 11 11 11 11 11 11 12 12 11 12 12 12 12 13 13 13 13 12 12 12
15 14 14 14 14 14 14 14 14 13 13 13 13 14 13 13 13 12 12 11 11 12 12 12 12 12 12 12 12 12 12 13 13 13 13 12 12 12
16 16 15 15 15 14 14 14 14 14 14 13 13 13 13 12 12 12 12 13 13 12 12 12 12 13 13 13 13 13 13 13 13 13 13 13 12 12
17 17 17 17 16 16 16 15 15 15 15 15 14 14 13 13 12 13 13 13 13 13 14 13 13 14 14 14 14 14 14 14 14 14 14 13 13 13
19 18 18 17 17 17 17 16 16 16 17 16 16 15 14 14 14 14 14 14 14 15 14 15 15 15 15 16 16 15 15 15 15 15 14 14 14 14
20 20 20 19 18 18 18 18 18 17 18 17 17 16 16 15 15 15 15 16 16 15 15 15 16 16 16 16 16 16 16 16 16 15 15 15 15 15
22 22 22 21 21 20 20 20 19 19 19 19 19 18 18 17 17 17 16 17 17 16 16 16 16 16 17 17 17 17 17 16 16 16 16 15 15 15
23 23 23 23 23 23 22 22 21 21 20 20 20 20 20 19 18 18 18 18 18 17 17 17 17 17 17 17 17 17 17 16 16 16 16 15 15 14
24 24 24 24 24 24 24 24 24 24 23 23 22 22 22 21 21 20 20 20 20 19 19 19 18 18 18 18 18 17 17 17 16 16 16 15 15 14
24 25 25 26 26 26 26 26 26 26 25 24 24 24 24 23 22 22 22 22 21 21 21 20 20 19 18 19 18 18 17 17 17 17 17 16 16 16
26 26 26 27 27 28 28 27 27 27 26 26 26 25 25 24 24 23 23 22 22 22 22 21 21 21 20 20 20 20 19 19 18 18 18 18 17 17
28 27 27 28 29 29 28 28 28 28 28 27 27 27 27 26 26 25 24 24 23 23 23 23 23 22 22 21 20 20 20 20 20 20 20 20 20 19
30 29 30 30 30 30 30 30 30 30 29 28 28 28 28 28 28 27 26 26 25 25 25 24 24 24 23 22 22 22 22 22 22 22 22 21 21 21
31 30 30 31 31 31 31 31 31 31 31 30 30 30 29 29 28 28 28 28 27 27 27 26 26 26 25 24 24 23 23 22 22 23 23 22 22 22
32 32 31 32 32 32 32 32 32 32 32 31 31 30 31 31 30 30 29 29 28 28 28 28 28 27 26 26 25 24 24 23 23 23 23 23 23 23
33 33 33 33 33 33 33 33 33 33 33 33 32 32 32 31 31 31 31 30 30 29 29 29 29 29 28 27 26 26 25 25 24 24 24 24 24 24
32 33 33 33 34 34 34 34 34 33 33 33 33 33 33 32 32 32 32 31 31 30 30 30 30 29 29 28 28 28 27 26 26 26 25 25 25 25
32 32 32 33 33 34 34 34 34 34 34 34 33 33 33 32 32 32 32 32 32 32 31 31 30 30 29 28 28 29 28 27 27 27 26 26 26 26
32 33 33 33 33 33 33 34 34 34 34 34 34 34 33 32 32 32 32 32 32 32 32 32 32 31 30 30 30 29 30 29 28 28 28 27 27 27
32 32 32 32 33 33 33 34 34 34 34 34 34 33 33 33 32 32 32 32 32 32 31 32 32 32 32 32 31 30 30 30 30 30 29 29 29 29
33 33 33 32 32 33 33 33 34 34 34 34 34 34 33 33 32 32 32 33 33 33 33 32 33 33 33 32 31 31 31 32 31 31 31 31 30 30
33 33 33 33 32 32 33 33 33 34 34 35 35 34 34 34 34 33 32 33 34 34 34 34 34 33 33 32 32 32 32 32 32 31 31 31 31 31
Wind_Direction
269 272 274 272 274 274 272 274 273 274 279 281 283 282 283 283 281 282 280 279 279 280 279 280 282 283 284 291 296 296 298 301 302 302 301 300 300 298
267 270 272 271 272 274 275 273 274 276 278 280 280 280 280 280 280 282 279 279 278 277 278 280 282 284 285 289 293 294 296 300 301 301 301 300 300 298
267 268 268 269 270 271 273 272 272 275 277 278 279 279 277 278 279 278 278 277 278 278 280 282 282 284 285 287 292 295 297 299 300 300 301 298 297 297
268 267 268 269 269 267 271 272 270 272 274 277 278 277 276 276 276 275 275 277 278 279 281 283 283 283 285 288 291 293 297 301 300 299 301 299 296 296
267 267 267 268 268 266 267 268 268 271 272 273 274 274 273 274 275 273 272 274 275 278 279 281 281 283 284 286 289 290 292 297 298 298 299 298 298 298
267 267 268 266 265 264 264 266 266 269 269 270 272 272 272 272 272 273 273 274 274 277 278 278 279 282 283 283 286 288 290 291 292 293 294 295 296 297
266 266 267 266 265 264 264 265 264 267 268 267 270 271 270 271 270 271 272 274 275 276 278 279 279 280 282 283 285 286 287 288 288 289 292 293 294 296
265 265 265 265 265 264 263 263 264 265 266 266 267 269 269 269 269 269 271 274 275 275 276 278 281 282 283 284 285 285 286 287 287 288 291 293 293 295
266 265 265 264 264 263 263 263 263 264 266 265 266 268 268 267 268 269 271 273 272 273 274 276 279 280 282 284 286 288 286 285 285 286 287 288 290 294
268 266 266 265 263 262 262 262 263 264 264 265 265 266 267 266 268 270 272 273 271 271 273 274 276 278 280 282 283 285 285 284 283 284 285 285 287 290
269 268 267 265 264 263 262 262 263 263 263 263 266 265 266 266 268 271 271 273 270 270 271 273 275 277 279 280 280 282 282 283 282 279 281 283 285 287
268 268 268 265 264 264 263 262 262 262 263 263 264 264 264 265 268 270 270 269 268 269 270 272 273 276 277 277 278 279 279 279 278 277 276 277 281 285
268 267 267 265 264 264 263 262 261 261 261 261 262 263 263 263 266 268 268 268 267 268 270 272 273 276 277 275 274 277 277 277 276 276 276 277 278 281
267 267 266 265 264 263 262 261 260 260 260 261 261 261 261 263 264 266 266 265 265 266 267 270 272 275 275 275 275 275 276 276 275 275 276 277 277 279
267 267 266 264 262 262 261 261 261 261 261 261 260 260 260 260 261 262 263 263 264 265 267 268 271 272 273 273 274 275 274 274 274 275 275 275 276 278
267 267 265 264 263 263 263 261 261 261 261 261 261 261 260 260 259 260 261 263 264 265 266 268 269 271 272 272 273 273 273 273 273 274 274 276 277 277
268 267 265 264 263 263 263 262 261 261 261 261 260 260 262 262 261 260 260 261 262 264 265 267 268 268 269 270 271 271 272 272 271 272 273 274 276 276
270 268 266 265 264 263 264 264 262 261 261 262 261 261 261 262 262 261 259 260 261 262 264 266 266 266 267 268 269 271 271 271 272 272 272 273 275 276
271 270 268 267 265 264 264 264 262 261 261 261 261 260 260 261 261 260 258 259 260 261 263 264 265 265 267 268 269 271 271 271 271 271 272 273 275 275
273 271 270 268 267 265 264 263 261 260 259 259 259 260 260 261 260 259 258 258 259 261 262 264 265 266 266 267 267 268 269 270 270 270 271 272 274 276
273 272 271 269 268 266 265 263 261 260 258 258 258 258 258 259 259 258 258 258 258 260 263 264 265 266 266 266 266 267 267 268 269 270 271 272 274 275
274 273 271 271 269 266 265 264 262 259 258 258 258 257 256 257 257 256 256 257 258 260 262 262 263 265 266 266 266 266 266 266 269 271 272 273 273 274
273 273 271 271 270 266 265 265 263 260 259 258 257 257 257 257 256 256 258 258 259 259 260 261 262 264 266 266 265 265 266 266 268 270 273 274 273 274
Height
5819 5820 5820 5821 5821 5821 5821 5822 5823 5823 5823 5823 5823 5823 5823 5823 5823 5824 5823 5823 5823 5823 5823 5823 5823 5823 5822 5821 5821 5820 5819 5817 5816 5815 5814 5812 5811 5810
5816 5816 5817 5817 5817 5817 5818 5818 5819 5820 5820 5820 5820 5820 5820 5820 5820 5820 5820 5820 5821 5820 5820 5820 5820 5820 5819 5818 5818 5817 5816 5814 5813 5812 5811 5809 5808 5807
5812 5812 5813 5813 5814 5814 5814 5815 5815 5816 5817 5817 5817 5817 5817 5817 5817 5817 5817 5817 5817 5817 5817 5817 5817 5816 5816 5815 5815 5814 5813 5811 5810 5809 5808 5806 5805 5804
5807 5808 5809 5809 5810 5810 5810 5811 5812 5812 5813 5813 5813 5813 5813 5813 5814 5814 5814 5814 5814 5814 5814 5814 5813 5813 5812 5812 5811 5810 5809 5808 5807 5806 5804 5803 5802 5801
5802 5803 5804 5804 5805 5806 5806 5807 5807 5808 5808 5809 5809 5809 5810 5810 5810 5810 5810 5810 5810 5810 5810 5810 5809 5809 5808 5808 5807 5806 5805 5804 5803 5802 5801 5800 5798 5797
5797 5798 5798 5799 5800 5801 5802 5802 5803 5803 5804 5804 5805 5805 5805 5805 5806 5806 5806 5806 5806 5806 5806 5805 5805 5804 5804 5803 5802 5802 5801 5800 5799 5798 5797 5796 5795 5794
5791 5792 5793 5794 5795 5795 5796 5797 5797 5798 5799 5799 5800 5800 5801 5801 5801 5801 5802 5801 5801 5801 5801 5800 5800 5800 5799 5798 5797 5797 5796 5795 5795 5794 5793 5792 5791 5790
5785 5785 5786 5788 5789 5789 5790 5791 5792 5793 5793 5794 5795 5795 5796 5796 5796 5796 5796 5796 5796 5796 5796 5796 5795 5794 5794 5793 5792 5792 5791 5790 5790 5789 5788 5787 5787 5786
5778 5779 5780 5781 5782 5783 5784 5785 5786 5786 5787 5788 5789 5789 5790 5790 5790 5791 5791 5791 5790 5790 5790 5790 5790 5789 5789 5788 5787 5786 5786 5785 5785 5784 5783 5783 5782 5781
5770 5771 5772 5773 5774 5775 5777 5778 5779 5780 5780 5781 5782 5783 5783 5784 5784 5785 5785 5784 5784 5784 5784 5785 5784 5784 5783 5782 5782 5781 5780 5780 5780 5779 5779 5778 5777 5777
5762 5763 5764 5765 5766 5767 5768 5770 5771 5772 5773 5774 5775 5775 5776 5777 5777 5778 5778 5778 5778 5778 5778 5778 5778 5778 5778 5777 5776 5775 5775 5775 5774 5774 5773 5773 5773 5772
5754 5755 5755 5756 5757 5758 5759 5761 5762 5763 5765 5766 5767 5767 5768 5769 5770 5770 5771 5771 5771 5772 5772 5772 5772 5772 5772 5771 5770 5770 5769 5769 5768 5768 5768 5767 5767 5767
5745 5746 5746 5747 5748 5749 5750 5752 5753 5754 5755 5757 5758 5759 5760 5761 5762 5762 5763 5764 5764 5765 5765 5765 5765 5765 5765 5765 5764 5763 5763 5762 5762 5762 5761 5761 5761 5761
5736 5736 5737 5737 5738 5739 5740 5742 5743 5744 5746 5747 5749 5750 5751 5752 5753 5754 5754 5755 5756 5757 5757 5758 5758 5757 5757 5757 5757 5757 5756 5755 5755 5755 5755 5754 5754 5754
5725 5726 5727 5727 5728 5729 5731 5732 5733 5735 5736 5737 5739 5740 5742 5743 5744 5745 5745 5746 5747 5748 5749 5749 5749 5749 5749 5749 5749 5749 5749 5748 5748 5747 5747 5747 5747 5747
5714 5715 5716 5717 5718 5719 5720 5722 5723 5725 5726 5727 5728 5730 5731 5732 5734 5735 5736 5737 5738 5739 5739 5740 5740 5741 5741 5741 5741 5741 5741 5741 5741 5740 5740 5739 5739 5739
5703 5704 5705 5707 5708 5709 5710 5711 5712 5714 5715 5717 5718 5719 5720 5722 5723 5724 5726 5727 5729 5730 5731 5731 5731 5731 5731 5732 5732 5733 5732 5732 5732 5732 5732 5732 5731 5731
5692 5694 5695 5696 5697 5698 5699 5700 5701 5703 5704 5705 5707 5708 5710 5711 5712 5714 5715 5717 5718 5720 5721 5721 5721 5722 5722 5723 5723 5723 5723 5723 5723 5723 5723 5723 5723 5722
5682 5683 5684 5684 5685 5686 5687 5688 5690 5691 5692 5694 5695 5697 5699 5700 5702 5703 5704 5706 5708 5709 5710 5711 5711 5712 5713 5714 5714 5713 5713 5713 5713 5713 5713 5713 5714 5713
5671 5672 5672 5673 5674 5674 5676 5677 5678 5679 5681 5683 5684 5685 5687 5689 5690 5692 5694 5695 5697 5698 5699 5700 5701 5702 5702 5703 5704 5704 5703 5703 5703 5704 5704 5704 5704 5704
5660 5661 5661 5661 5662 5663 5664 5665 5666 5668 5669 5671 5672 5674 5676 5677 5679 5681 5683 5684 5686 5687 5689 5690 5690 5691 5691 5692 5693 5694 5694 5693 5693 5694 5694 5694 5694 5694
5649 5649 5649 5650 5650 5651 5652 5652 5654 5656 5657 5659 5661 5662 5664 5666 5668 5669 5671 5673 5674 5676 5677 5679 5679 5680 5681 5681 5682 5683 5683 5684 5683 5683 5684 5684 5683 5684
5638 5638 5637 5638 5638 5639 5640 5641 5642 5643 5645 5647 5649 5651 5652 5654 5656 5658 5660 5661 5663 5664 5665 5667 5668 5669 5670 5670 5671 5672 5673 5673 5673 5674 5674 5673 5673 5674